Location: Newark
(48.4472°N, 1.4892°E)
Time: 12:32:56
(UTC+00:00)

Transit 4A - Pass Details

Date: 18 January 2021
Orbit: 866 x 978 km, 66.8° (Epoch: 01 March)

Event Time Altitude Azimuth Distance (km) Brightness Sun altitude
Exits shadow 03:28:42 28° 60° (ENE) 1,697 9.6 -40.7°
Drops below altitude 10° 03:32:36 10° 97° (E) 2,621 10.8 -40.1°
Sets 03:35:24 0° 108° (ESE) 3,541 11.6 -39.7°
